To NAV CANADA Home Page Login to a new session Search on AWWS site Feedback and Comments Disclaimer Vers la page française équivalente Tips FAQ What's new on the site To the Forecasts and Observations / NOTAM section To "File a Flight Plan" website Publications and other links Update of the User's profile FIC Telephone Numbers My Weather Data Folder Route Weather Data Regional Weather Data Local Weather Data To the Forecasts and Observations / NOTAM section
Request Generated 12/04/2016 at 22:23:08 UTC . Weather information available at that time is displayed.

METAR/TAF

MAKKOVIK/NL    

LWIS CYFT 042200Z AUTO 23012KT M10/M13 A2981=
METAR CYFT 042100Z 24012KT 15SM OVC045 M10/M13 A2980 RMK SC8 LAST
OBS/NEXT 051000UTC/ SLP099=
SPECI CYFT 042021Z 24009G16KT 15SM OVC035 M10/M13 A2980 RMK SC8
SLP100=
METAR CYFT 042000Z 25011KT 15SM -SN OVC035 M10/M13 A2980 RMK SC8
SLP099=

CYFT - No TAF is issued for this station

Your time UTC time
Weather data provided by Environment Canada and NAV CANADA